Regional Weather Roundup
Issued by NWS

Home | Current Version | Previous Version | Text Only | Print | Product List | Glossary On
Versions: 1 2 3 4 5 6 7 8 9 10 11 12 13 14 15 16 17 18 19 20 21 22 23 24 25 26 27 28 29 30 31 32 33 34 35 36 37 38 39 40 41 42 43 44 45 46 47 48 49 50
000
ASUS45 KBOU 200307
RWRCO

WEATHER ROUNDUP FOR COLORADO
NATIONAL WEATHER SERVICE DENVER/BOULDER CO
900 PM MDT TUE AUG 19 2014

NOTE: "FAIR" INDICATES FEW OR NO CLOUDS BELOW 12000 FEET WITH NO
SIGNIFICANT WEATHER AND/OR OBSTRUCTIONS TO VISIBILITY.

COZ001>005-013-030-031-200400-
...NORTHWEST COLORADO...

CITY           SKY/WX    TMP DP  RH WIND       PRES   REMARKS
CRAIG          CLOUDY    64  53  67 E5        30.01R
HAYDEN         CLOUDY    63  48  59 S7        30.04R
MEEKER         CLOUDY    62  53  72 SE6       30.05R
MOUNT WERNER   NOT AVBL
STEAMBOAT SPGS CLOUDY    60  52  74 SE8       30.06R
WALDEN         CLOUDY    52  46  82 CALM      30.14F
$$

COZ006>008-011-200400-
...WEST CENTRAL VALLEYS...

CITY           SKY/WX    TMP DP  RH WIND       PRES   REMARKS
GRAND JUNCTION RAIN      61  60  97 E6        29.98S FOG
MONTROSE       CLOUDY    64  59  83 SW3       30.05R
EAGLE          CLOUDY    66  48  52 W15       30.08R
RIFLE          RAIN      60  57  89 E7        30.05R
DELTA          RAIN      65  60  83 NE3       30.02R
NUCLA          CLOUDY    64  52  63 SE3       30.08S
$$

COZ017>023-064>068-200400-
...SOUTHWEST COLORADO...

CITY           SKY/WX    TMP DP  RH WIND       PRES   REMARKS
DURANGO        CLOUDY    67  48  50 S5        30.10R
CORTEZ         CLOUDY    63  59  87 NE7       30.06S
PAGOSA SPRINGS HVY RAIN  57  55  95 S9G22     30.23R
TELLURIDE      NOT AVBL
WOLF CREEK PAS NOT AVBL
$$

COZ009-010-012-014-032>034-037-058>063-200400-
...CENTRAL COLORADO...

CITY           SKY/WX    TMP DP  RH WIND       PRES   REMARKS
ASPEN          CLOUDY    59  52  77 CALM      30.12R
BUENA VISTA    CLOUDY    59  50  70 CALM      30.14R
COPPER MTN     MOCLDY    54  36  50 S17       30.41S
BERTHOUD PASS  MOCLDY    43  43 100 MISG      30.46S
COTTONWOOD PAS CLOUDY    59  43  55 W7        30.27R
GUNNISON       CLOUDY    61  48  63 S6        30.14R
KREMMLING      MOCLDY    59  46  63 CALM      30.11R
LEADVILLE      CLOUDY    50  43  77 NE3       30.25S
MONARCH PASS   CLOUDY    48  37  66 SW16      30.52R
SALIDA         CLOUDY    61  53  74 SW5       30.18R
SUNLIGHT       RAIN      48  46  93 CALM      30.33R
WILKERSON PASS CLOUDY    50  36  57 S5        30.40S
$$

COZ069>075-200400-
...SAN LUIS VALLEY/SANGRE DE CRISTO MOUNTAINS...

CITY           SKY/WX    TMP DP  RH WIND       PRES   REMARKS
ALAMOSA        CLOUDY    65  43  44 SW6       30.10R
LA VETA PASS   CLOUDY    57  37  47 S12G17    30.30S
SAGUACHE       CLOUDY    64  45  48 CALM      30.13R
$$

COZ035-036-038>040-200400-
...NORTHERN COLORADO FRONT RANGE...

CITY           SKY/WX    TMP DP  RH WIND       PRES   REMARKS
DENVER INTL AP MOCLDY    67  55  65 SW9       29.93S
DMNS CITY PARK   N/A     68  54  59 SE1       29.92S
AURORA         MOCLDY    65  55  70 S5        29.96S
FRONT RANGE AP NOT AVBL
ERIE MUNI ARPT PTCLDY    69  49  49 SE5       29.90S
BOULDER MUN AP PTCLDY    70  50  49 CALM      29.93R
CENTENNIAL     MOCLDY    66  52  60 VRB3      29.96S
BROOMFIELD     MOCLDY    70  50  49 VRB5      29.95S
FORT COLLINS   MOCLDY    70  50  49 S3        29.92R
LONGMONT       MOCLDY    69  52  53 W6        29.92R
$$

COZ041-046-047-076>085-087-088-200400-
...PIKES PEAK/PALMER DIVIDE AND SOUTHERN FOOTHILLS...

CITY           SKY/WX    TMP DP  RH WIND       PRES   REMARKS
COLO. SPRINGS  MOCLDY    69  46  43 NW5       29.99S
A. F. ACADEMY  MOCLDY    64  50  59 N6        30.01F
ELLICOTT       MOCLDY    65  50  58 E9        30.00R
FALCON         MOCLDY    65  47  51 CALM      30.04S
FORT CARSON    MOCLDY    64  50  59 N7        29.96R
LIMON          CLOUDY    69  48  47 N5        29.95F
MONUMENT HILL  CLOUDY    61  46  59 S8        30.03F
TRINIDAD       MOCLDY    70  49  47 W9        29.98R
$$

COZ042>045-048>051-090-091-200400-
...NORTHEAST COLORADO...

CITY           SKY/WX    TMP DP  RH WIND       PRES   REMARKS
GREELEY ARPT   MOCLDY    68  52  56 CALM      29.90R
AKRON          CLOUDY    67  57  70 NE8       29.87F
BURLINGTON     CLOUDY    80  46  30 SW9       29.85R
WRAY           LGT RAIN  68  61  79 N8        29.83F
STERLING       CLOUDY    70  63  78 E9        29.85S
HOLYOKE        NOT AVBL
FORT MORGAN    CLOUDY    67  57  71 NE6       29.88R
$$

COZ086-089-092>099-200400-
...SOUTHEAST COLORADO...

CITY           SKY/WX    TMP DP  RH WIND       PRES   REMARKS
PUEBLO         MOCLDY    75  52  44 SW6       29.87R
LA JUNTA       MOCLDY    80  51  36 S7        29.83S
LAMAR          PTCLDY    77  49  37 S9        29.80R
SPRINGFIELD      N/A     78  53  41 S15       29.90R
$$



USA.gov is the U.S. government's official web portal to all federal, state and local government web resources and services.